Location: Alphen
(52.1351°N, 4.6549°E)
Time: 01:55:07
(UTC+00:00)

USA 308 - Pass Details

Date: 27 January 2021
Orbit: 565 x 581 km, 54.0° (Epoch: 25 February)

Event Time Altitude Azimuth Distance (km) Brightness Sun altitude
Exits shadow 04:53:01 32° 176° (S) 975 4.0 -23.7°
Maximum altitude 04:54:01 37° 145° (SE) 882 4.1 -23.6°
Drops below altitude 10° 04:57:56 10° 77° (ENE) 1,865 6.6 -23.0°
Sets 05:00:17 0° 69° (ENE) 2,765 7.6 -22.6°
